Weather in Ambon

Indonesia     3°40′00″S   128°09′19″E
temp.,
°C
wind,
m/s
gust,
m/s
humid.,
%
clouds,
%
prec.,
mm/h
press.,
hPa
HPBL,
m
20 april, tue
tue2000:00+25se3487100 6.1 1010347
03:00+25se2386100 6.6 1008347
06:00+26e3384100 0.1 1009461
09:00+27e2378100 0.1 1011617
12:00+28ese2272100 0.0 1010608
15:00+28se2271100 0.0 1008528
18:00+27se2273100 0.1 1009372
21:00+27sse2275100 0.1 1012444
21 april, wed
wed2100:00+27s1277100 0.0 1011482
03:00+26ssw117999 0.6 1010202
06:00+26sw117892 0.1 1011285
09:00+27ssw1172100 0.1 1012591
12:00+28sse1168100 0.0 1010676
15:00+28s2271100 0.2 1008671
18:00+27ssw237576 0.1 1009485
21:00+27s227649 0.1 1011419
22 april, thu
thu2200:00+27sse227798 0.0 1011479
03:00+26sse127974 0.1 1009438
06:00+26se1280100 0.5 1010428
09:00+28se1275100 0.5 1012679
12:00+28s337247 0.1 1010748
15:00+28s3373100 0.1 1008776
18:00+28s3375100 0.1 1008578
21:00+27sse237614 0.1 1011560
23 april, fri
fri2300:00+27se227899 0.4 1010314
03:00+27sse228093 1.0 1009397
06:00+26se12805 0.1 1009375
09:00+28se237515 0.1 1011748
12:00+29se337162 0.1 1009770
15:00+29sse33705 0.1 1007797
18:00+28sse34745 0.0 1008705
21:00+27sse457928 0.5 1011570
24 april, sat
sat2400:00+27sse347787 0.1 1010601
03:00+27s3377100 0.1 1009548
06:00+27sse347976 0.2 1010561
09:00+28sse347581 0.3 1011795
12:00+28sse347499 0.6 1010737
15:00+28s44739 1.1 1008831
18:00+28s4573100 0.4 1009772
21:00+27sse347465 0.5 1011552